MSC Luisa — H9XU — position and weather

sailwx.info

Track history (hours):
 
Tides and Currents Weather Stations Pressure Air Temp Water Temp Dewpoint Dewpoint Depression Visibility Wind Speed Wind Dir Waves Ship Positions

MSC Luisa

Last reported at 2014-Oct-31 07:18 UTC. Time now 2014-Oct-31 09:17 UTC.
Position N 38°58' W 009°49'.

Length 300 m; draft 10.2 m.

Type: Ship. MMSI: 355308000.

Date/timePositionNaut miles runAvg speedWind from/ knotsBaromVisibWave heightAir tempDewpointWater temp
2014-Oct-31 07:18N 38°58' W 009°49'1520.0
2014-Oct-31 06:33N 38°43' W 009°50'1919.0
2014-Oct-31 05:33N 38°28' W 009°35'2120.6
2014-Oct-31 04:33N 38°13' W 009°18'2020.1
2014-Oct-31 03:33N 37°58' W 009°00'7 7.4
2014-Oct-31 02:33N 37°56' W 008°51'0 0.0
2014-Oct-31 01:33N 37°56' W 008°51'0 0.0
2014-Oct-31 00:33N 37°56' W 008°51'0 0.0
2014-Oct-30 23:33N 37°56' W 008°51'0 0.0
2014-Oct-30 22:33N 37°56' W 008°51'0 0.0
2014-Oct-30 21:33N 37°56' W 008°51'0 0.0
2014-Oct-30 20:33N 37°56' W 008°51'0 0.0
2014-Oct-30 19:33N 37°56' W 008°51'0 0.0
2014-Oct-30 18:33N 37°56' W 008°51'0 0.0
2014-Oct-30 17:33N 37°56' W 008°51'0 0.0
2014-Oct-30 16:33N 37°56' W 008°51'0 0.0
2014-Oct-30 15:33N 37°56' W 008°51'0 0.0
2014-Oct-30 14:33N 37°56' W 008°51'0 0.0
2014-Oct-30 13:33N 37°56' W 008°51'0 0.0
2014-Oct-30 12:33N 37°56' W 008°51'0 0.0
2014-Oct-30 11:33N 37°56' W 008°51'0 0.0
2014-Oct-30 10:33N 37°56' W 008°51'0 0.0
2014-Oct-30 09:33N 37°56' W 008°51'3 2.6
2014-Oct-30 08:33N 37°54' W 008°50'1 1.0
2014-Oct-30 07:33N 37°53' W 008°52'2 2.4
2014-Oct-30 06:33N 37°52' W 008°54'4 4.3
2014-Oct-30 05:33N 37°47' W 008°55'1414.5
2014-Oct-30 04:33N 37°34' W 009°02'1918.4
2014-Oct-30 03:32N 37°17' W 009°12'1818.2
2014-Oct-30 02:33N 37°01' W 009°20'1717.4
2014-Oct-30 01:33N 36°46' W 009°09'1817.6
2014-Oct-30 00:33N 36°40' W 008°48'1917.7
2014-Oct-29 23:31N 36°33' W 008°27'2018.0
2014-Oct-29 22:24N 36°27' W 008°03'3618.2
2014-Oct-29 20:25N 36°16' W 007°20'9018.5
2014-Oct-29 15:33N 35°58' W 005°31'1717.3
2014-Oct-29 14:34N 36°02' W 005°11'90518.8
2014-Oct-27 14:32N 36°53' E 013°32'2120.9
2014-Oct-27 13:34N 36°47' E 013°57'2120.6
2014-Oct-27 12:33N 36°42' E 014°22'3021.5
2014-Oct-27 11:11N 36°34' E 014°57'41720.2
2014-Oct-26 14:33N 36°39' E 023°37'2221.9
2014-Oct-26 13:33N 36°56' E 023°53'2221.7
2014-Oct-26 12:33N 37°14' E 024°09'2221.8
2014-Oct-26 11:33N 37°32' E 024°25'2221.5
2014-Oct-26 10:33N 37°51' E 024°36'  
2014-Oct-24 04:19N 40°30' E 028°04'2520.0
2014-Oct-24 03:04N 40°26' E 028°37'1819.7
2014-Oct-24 02:10N 40°26' E 028°60'4 0.2
2014-Oct-23 09:07N 40°26' E 029°05'3 4.6
2014-Oct-23 08:32N 40°26' E 029°02'1716.8
2014-Oct-23 07:33N 40°35' E 028°43'2019.4
2014-Oct-23 06:33N 40°54' E 028°42'4 0.2
2014-Oct-22 11:18N 40°58' E 028°40'0 0.0
2014-Oct-22 09:04N 40°58' E 028°40'0 0.2
2014-Oct-22 08:16N 40°58' E 028°41'2 2.4
2014-Oct-22 07:28N 40°56' E 028°41'1213.6
2014-Oct-22 06:34N 40°57' E 028°58'36 4.0
2014-Oct-21 21:33N 41°33' E 029°07'2 1.6
2014-Oct-21 20:09N 41°31' E 029°05'1 1.3
2014-Oct-21 19:33N 41°30' E 029°05'1 1.2
2014-Oct-21 18:33N 41°29' E 029°05'1 1.2
2014-Oct-21 17:33N 41°28' E 029°05'  
Track history (hours):
 
Tides and Currents Weather Stations Pressure Air Temp Water Temp Dewpoint Dewpoint Depression Visibility Wind Speed Wind Dir Waves Ship Positions

MSC Luisa

Last reported at 2014-Oct-31 07:18 UTC. Time now 2014-Oct-31 09:17 UTC.
Position N 38°58' W 009°49'.

Length 300 m; draft 10.2 m.

Type: Ship. MMSI: 355308000.

Date/timePositionNaut miles runAvg speedWind from/ knotsBaromVisibWave heightAir tempDewpointWater temp
2014-Oct-31 07:18N 38°58' W 009°49'1520.0
2014-Oct-31 06:33N 38°43' W 009°50'1919.0
2014-Oct-31 05:33N 38°28' W 009°35'2120.6
2014-Oct-31 04:33N 38°13' W 009°18'2020.1
2014-Oct-31 03:33N 37°58' W 009°00'7 7.4
2014-Oct-31 02:33N 37°56' W 008°51'0 0.0
2014-Oct-31 01:33N 37°56' W 008°51'0 0.0
2014-Oct-31 00:33N 37°56' W 008°51'0 0.0
2014-Oct-30 23:33N 37°56' W 008°51'0 0.0
2014-Oct-30 22:33N 37°56' W 008°51'0 0.0
2014-Oct-30 21:33N 37°56' W 008°51'0 0.0
2014-Oct-30 20:33N 37°56' W 008°51'0 0.0
2014-Oct-30 19:33N 37°56' W 008°51'0 0.0
2014-Oct-30 18:33N 37°56' W 008°51'0 0.0
2014-Oct-30 17:33N 37°56' W 008°51'0 0.0
2014-Oct-30 16:33N 37°56' W 008°51'0 0.0
2014-Oct-30 15:33N 37°56' W 008°51'0 0.0
2014-Oct-30 14:33N 37°56' W 008°51'0 0.0
2014-Oct-30 13:33N 37°56' W 008°51'0 0.0
2014-Oct-30 12:33N 37°56' W 008°51'0 0.0
2014-Oct-30 11:33N 37°56' W 008°51'0 0.0
2014-Oct-30 10:33N 37°56' W 008°51'0 0.0
2014-Oct-30 09:33N 37°56' W 008°51'3 2.6
2014-Oct-30 08:33N 37°54' W 008°50'1 1.0
2014-Oct-30 07:33N 37°53' W 008°52'2 2.4
2014-Oct-30 06:33N 37°52' W 008°54'4 4.3
2014-Oct-30 05:33N 37°47' W 008°55'1414.5
2014-Oct-30 04:33N 37°34' W 009°02'1918.4
2014-Oct-30 03:32N 37°17' W 009°12'1818.2
2014-Oct-30 02:33N 37°01' W 009°20'1717.4
2014-Oct-30 01:33N 36°46' W 009°09'1817.6
2014-Oct-30 00:33N 36°40' W 008°48'1917.7
2014-Oct-29 23:31N 36°33' W 008°27'2018.0
2014-Oct-29 22:24N 36°27' W 008°03'3618.2
2014-Oct-29 20:25N 36°16' W 007°20'9018.5
2014-Oct-29 15:33N 35°58' W 005°31'1717.3
2014-Oct-29 14:34N 36°02' W 005°11'90518.8
2014-Oct-27 14:32N 36°53' E 013°32'2120.9
2014-Oct-27 13:34N 36°47' E 013°57'2120.6
2014-Oct-27 12:33N 36°42' E 014°22'3021.5
2014-Oct-27 11:11N 36°34' E 014°57'41720.2
2014-Oct-26 14:33N 36°39' E 023°37'2221.9
2014-Oct-26 13:33N 36°56' E 023°53'2221.7
2014-Oct-26 12:33N 37°14' E 024°09'2221.8
2014-Oct-26 11:33N 37°32' E 024°25'2221.5
2014-Oct-26 10:33N 37°51' E 024°36'  
2014-Oct-24 04:19N 40°30' E 028°04'2520.0
2014-Oct-24 03:04N 40°26' E 028°37'1819.7
2014-Oct-24 02:10N 40°26' E 028°60'4 0.2
2014-Oct-23 09:07N 40°26' E 029°05'3 4.6
2014-Oct-23 08:32N 40°26' E 029°02'1716.8
2014-Oct-23 07:33N 40°35' E 028°43'2019.4
2014-Oct-23 06:33N 40°54' E 028°42'4 0.2
2014-Oct-22 11:18N 40°58' E 028°40'0 0.0
2014-Oct-22 09:04N 40°58' E 028°40'0 0.2
2014-Oct-22 08:16N 40°58' E 028°41'2 2.4
2014-Oct-22 07:28N 40°56' E 028°41'1213.6
2014-Oct-22 06:34N 40°57' E 028°58'36 4.0
2014-Oct-21 21:33N 41°33' E 029°07'2 1.6
2014-Oct-21 20:09N 41°31' E 029°05'1 1.3
2014-Oct-21 19:33N 41°30' E 029°05'1 1.2
2014-Oct-21 18:33N 41°29' E 029°05'1 1.2
2014-Oct-21 17:33N 41°28' E 029°05'  

Dump ship's entire track history